Location: Hamburg
(53.5500°N, 10.0000°E)
Time: 04:22:36
(UTC+01:00)

ISS - Visible Passes

Search period start: 23 November 2014 00:00
Search period end: 03 December 2014 00:00
Orbit: 408 x 417 km, 51.6° (Epoch: 23 November)

Date Brightness Start Highest point End Pass type
(mag) Time Alt. Az. Time Alt. Az. Time Alt. Az.
23 Nov -1.4 05:08:20 29° SE 05:08:20 29° SE 05:10:10 10° ESE visible
23 Nov -1.6 06:41:10 14° WSW 06:43:11 23° SSW 06:45:53 10° SSE visible
24 Nov -2.2 05:53:31 31° SSW 05:53:37 31° SSW 05:56:35 10° SE visible
25 Nov -0.9 05:05:52 20° SE 05:05:52 20° SE 05:07:05 10° SE visible
25 Nov -1.0 06:38:42 11° WSW 06:39:59 13° SW 06:41:39 10° S visible
26 Nov -1.3 05:51:03 18° SSW 05:51:03 18° SSW 05:52:48 10° SSE visible
27 Nov -0.2 05:03:24 11° SSE 05:03:24 11° SSE 05:03:30 10° SSE visible
